SCP
0 0 0 0 0 0 0 0 0 0 0 0 0 0 0 0 0 0 0 -0 0 -0 -1 -2 -2 -1 -1 -1 -1 -1 -1 -1 -1 -1 -1 -1 -0 -0 -0 -0 -0 -0 -0 -0 -0 -0 -0 -0 -0
0 0 0 0 0 0 0 0 0 0 0 0 0 0 0 -0 0 0 -1 0 0 -0 -0 -1 -2 -1 -1 -1 -1 -1 -1 -1 -1 -1 -1 -1 -0 -0 -0 -0 -0 -0 -0 -0 -0 -0 -0 -0 -0
0 0 0 0 0 0 0 0 0 0 0 0 0 0 0 0 0 0 0 0 0 -0 -1 -0 -1 -1 -1 -1 -1 -1 -1 -1 -1 -1 -1 -1 -0 -0 -0 -0 -0 -0 -0 -0 -0 -0 -0 -0 -0
0 0 0 0 0 0 0 0 0 0 0 0 0 0 0 0 0 0 1 1 1 1 1 -1 -0 -0 -1 -1 -1 -0 -1 -1 -1 -0 -0 -0 -0 -0 -0 -0 -0 -0 -0 -0 -0 -0 -0 -0 -0
0 0 0 0 0 0 0 0 0 0 0 0 0 0 0 0 1 1 1 1 1 2 1 0 -0 0 -0 -0 -0 -0 -0 -0 -0 -0 -0 -0 -0 -0 -0 -0 -0 -0 -0 -0 -0 -0 -0 -0 0
0 0 0 0 0 0 0 0 0 0 -0 0 0 0 0 -0 -0 0 1 1 2 2 2 1 0 0 0 -0 -0 -0 -0 -0 -0 -0 -0 -0 -0 -0 -0 -0 -0 -0 -0 -0 -0 -0 0 -0 0
0 0 0 0 0 0 0 0 0 0 0 0 0 0 0 -0 -0 0 1 1 2 3 2 1 1 1 0 0 0 -0 -0 -0 -0 -0 -0 -0 -0 -0 -0 -0 -0 -0 -0 -0 0 0 0 0 0
0 0 0 0 0 0 0 0 0 0 0 0 0 0 0 -0 -0 0 0 1 2 2 2 1 1 1 1 1 0 0 0 0 -0 -0 0 0 0 0 -0 -0 -0 -0 -0 0 0 0 0 0 0
0 0 0 0 0 0 0 0 0 0 0 0 0 0 0 -0 -0 0 0 0 2 2 2 1 1 1 1 1 1 0 0 0 0 0 0 0 0 0 0 0 0 0 0 0 0 0 0 0 0
0 0 0 0 0 0 0 0 0 0 0 0 0 0 0 -0 -0 -0 0 0 0 0 2 1 1 1 1 1 1 1 1 1 0 0 0 0 0 0 0 0 0 0 0 0 0 0 0 0 0
0 0 0 0 0 0 0 0 0 0 0 0 0 0 0 0 -0 -0 -0 0 0 0 1 2 1 1 1 1 0 0 1 1 0 0 0 0 0 0 0 0 0 0 0 0 0 0 0 0 0
0 0 0 0 0 0 0 0 0 0 0 0 0 0 0 0 -0 -0 -0 -0 0 0 0 2 1 1 0 1 0 0 0 0 0 0 0 0 0 0 0 0 0 0 0 0 0 0 0 0 0
0 0 0 0 0 0 0 0 0 0 0 0 0 0 0 0 0 0 0 0 -0 0 0 2 1 1 1 0 0 0 0 0 0 0 0 0 0 0 0 0 0 0 0 0 0 0 0 0 0
0 0 0 0 0 0 0 0 0 0 -0 0 0 0 0 0 0 0 0 0 -0 -0 0 1 1 1 1 0 0 1 0 0 0 0 0 0 0 0 0 0 0 0 0 0 0 0 0 0 0
0 0 0 0 0 0 0 0 0 -0 -0 -0 0 0 0 0 0 0 0 0 0 -0 0 1 1 1 1 1 1 1 0 0 0 0 0 0 0 0 0 0 0 0 0 0 0 0 0 0 0
0 0 0 0 0 0 0 0 0 0 0 0 0 0 0 0 0 0 0 0 0 0 0 1 2 2 1 1 1 1 0 0 0 0 0 0 0 0 0 0 0 0 0 0 0 0 0 0 0
0 0 0 0 0 0 0 0 0 0 0 0 0 0 0 0 0 0 0 0 0 0 0 1 2 1 2 0 1 0 0 0 0 0 0 0 0 0 0 0 0 0 0 0 0 0 0 0 0
0 0 0 0 0 0 0 0 0 0 0 0 0 0 0 0 0 0 0 0 0 1 0 1 3 1 0 1 0 0 0 0 0 0 0 0 0 0 0 0 0 0 0 0 0 0 0 0 0
0 0 0 0 0 0 0 0 0 -0 0 0 0 0 0 0 0 0 0 0 0 1 2 1 2 3 1 1 0 0 0 0 0 0 0 0 0 0 0 0 0 0 0 0 0 0 0 0 0
0 0 0 0 0 0 0 0 0 -0 -0 0 0 0 0 0 0 0 0 0 0 1 1 1 1 2 1 1 0 0 0 0 0 0 0 0 0 0 0 0 0 0 0 0 0 0 0 0 0
0 0 0 0 0 0 0 0 -0 -0 -0 -0 0 0 0 0 0 0 0 0 1 1 1 1 1 1 1 1 0 0 0 0 0 0 0 0 0 0 0 0 0 0 0 0 0 0 0 0 0
0 0 0 0 0 0 0 -0 -0 -0 0 0 0 0 0 0 0 0 0 0 1 1 2 1 2 1 1 0 0 0 0 0 0 0 0 0 1 0 0 0 0 0 0 0 0 0 0 0 0
0 0 0 0 0 0 0 0 -0 -0 0 0 0 0 0 0 0 0 0 0 0 0 3 2 2 2 1 1 1 0 0 0 0 0 1 1 1 0 0 0 0 0 0 0 0 0 0 0 0
0 0 0 0 0 0 0 0 -0 -0 -0 0 0 0 0 0 0 0 0 0 0 1 1 4 4 2 2 1 1 1 0 1 1 1 1 1 0 0 0 0 0 0 0 0 0 0 0 0 0
0 0 0 0 0 0 0 0 0 0 0 0 0 0 0 0 0 0 0 0 0 0 1 2 6 4 2 1 1 2 1 1 1 2 1 0 0 0 0 0 0 0 0 0 0 0 0 0 0
-0 0 0 0 0 0 0 0 0 -0 0 0 0 0 0 0 0 0 0 0 0 0 0 1 2 4 3 1 1 2 2 2 2 1 1 0 0 0 0 0 0 0 0 0 0 0 0 0 0
0 0 0 0 0 0 0 0 0 -0 0 0 0 0 0 0 0 0 0 0 0 0 0 1 1 4 3 2 2 2 2 2 2 1 0 0 0 0 0 0 0 0 0 0 0 0 0 0 0
0 0 0 0 0 0 -0 -0 0 0 0 0 0 0 0 0 0 0 0 0 0 0 0 0 1 2 4 2 2 3 3 2 1 1 0 0 0 0 0 0 0 0 0 0 0 0 0 0 0
0 0 0 0 0 -0 0 -0 0 0 0 0 0 0 0 0 0 0 0 0 0 0 0 0 1 1 3 3 3 3 3 2 1 0 0 0 0 0 0 0 0 0 0 0 0 0 0 0 0
0 0 0 0 0 0 0 0 0 -0 0 0 0 0 -0 -0 0 0 0 0 0 0 0 0 0 1 3 3 3 4 3 2 1 0 0 0 0 0 0 0 0 0 0 0 0 0 0 0 0
Wind_Speed_500mb
2 8 12 10 7 10 6 11 2 7 11 7 30 13 12 18 11 12 15 16 36 65 76 76 74 70 65 58 50 44 49 53 52 49 47 46 45 45 50 49 47 44 37 34 31 27 24 25 26
5 15 13 7 9 4 10 4 5 4 24 35 21 13 7 14 35 57 38 17 33 67 76 78 77 72 66 59 52 47 47 50 52 52 52 49 46 45 49 47 44 40 36 34 30 26 23 23 23
10 17 8 8 7 12 8 5 7 13 21 31 20 16 11 23 29 22 32 27 43 68 74 76 76 74 69 61 53 47 48 51 52 55 54 52 48 47 49 47 43 37 34 33 29 25 21 20 20
10 9 8 8 14 11 8 6 7 12 20 27 33 13 24 28 42 30 31 41 45 63 70 73 73 70 67 63 55 48 48 51 54 55 54 53 50 49 50 46 41 37 34 30 27 24 20 17 19
10 6 7 3 10 8 6 5 2 8 7 12 28 20 29 31 50 26 25 44 46 63 72 74 73 70 65 60 55 49 48 49 52 55 54 53 52 51 50 45 39 36 32 27 23 22 21 18 18
6 6 6 7 8 8 11 7 8 7 11 17 24 38 12 58 42 29 17 37 50 67 77 76 74 70 65 60 54 50 49 48 51 54 54 51 51 51 51 45 41 36 28 23 20 21 22 20 18
11 8 7 5 5 8 6 15 6 9 12 8 24 13 18 57 26 17 19 37 47 67 77 76 73 68 64 60 55 49 48 49 51 53 52 50 50 51 50 46 40 34 27 23 20 20 21 19 18
8 8 4 4 2 8 7 26 34 18 11 26 19 7 14 35 33 13 18 26 36 65 70 74 75 71 65 60 55 49 46 47 50 50 49 49 50 50 48 44 39 33 28 24 21 21 20 19 17
6 8 0 6 4 10 21 10 30 26 28 15 21 21 20 22 25 23 7 16 30 45 53 61 70 71 69 63 56 52 48 46 45 46 48 49 50 48 46 41 37 32 27 24 22 21 20 19 15
9 7 11 8 6 10 22 20 39 12 25 19 28 23 13 17 22 24 19 4 21 41 48 51 58 69 70 68 63 56 54 52 49 48 48 47 46 44 41 38 34 30 26 23 21 20 21 21 16
2 6 6 11 12 13 14 24 22 10 11 28 23 18 19 26 26 22 14 26 13 44 53 51 55 61 71 71 71 66 59 53 49 47 47 47 45 42 39 37 33 27 22 19 18 19 24 24 14
2 17 10 16 40 29 8 20 19 18 26 28 29 28 16 31 29 24 19 14 24 34 57 60 58 62 66 73 73 69 65 61 56 51 49 49 47 42 38 33 28 22 20 18 18 21 24 21 14
5 4 23 38 51 48 41 24 22 31 46 41 33 24 28 39 41 27 23 24 16 35 47 72 69 68 64 74 75 71 69 66 57 53 49 48 45 41 37 31 26 22 19 19 21 22 22 16 12
9 22 29 31 50 37 16 21 11 38 26 30 40 44 44 43 37 34 28 24 13 24 49 60 67 65 66 73 75 74 71 66 60 54 51 49 46 39 33 29 25 22 20 22 21 20 18 13 11
17 13 13 7 5 12 8 13 11 32 37 27 45 39 35 39 39 36 30 26 23 20 37 54 62 69 74 73 76 75 72 68 63 56 53 49 46 40 33 27 24 23 20 19 17 15 12 12 9
12 5 10 11 10 10 1 18 16 62 34 60 51 39 47 43 35 28 26 26 31 32 23 40 46 57 74 72 76 76 74 69 62 56 52 48 46 40 36 30 25 18 15 14 13 14 12 14 17
7 16 11 17 11 9 3 24 22 50 67 49 54 58 44 40 32 28 28 28 33 30 26 22 67 48 59 81 78 79 76 69 63 58 52 48 46 41 38 36 27 22 17 13 13 15 11 12 13
24 16 18 23 9 16 29 33 39 29 43 49 50 58 47 32 35 34 24 26 28 32 22 19 68 67 78 75 84 83 79 72 63 58 51 48 49 45 38 37 32 21 19 15 15 17 18 17 16
20 17 30 29 25 11 32 33 50 26 33 39 46 55 51 46 44 34 22 26 27 32 41 29 67 71 86 90 93 91 84 74 66 59 51 50 51 47 41 36 32 23 19 18 21 19 18 19 18
23 26 34 31 25 14 24 35 52 31 27 45 51 53 56 53 38 36 26 29 33 33 39 58 58 78 85 92 95 93 82 75 66 58 54 51 54 49 40 35 27 22 22 22 22 18 19 22 19
28 19 30 27 8 12 13 43 46 33 39 49 58 65 59 54 45 44 43 37 37 34 38 57 63 61 67 93 96 86 76 77 70 65 59 59 57 49 42 31 23 25 21 21 19 21 22 22 16
19 9 13 11 7 13 8 29 41 19 34 27 34 52 65 67 59 51 53 53 45 38 44 44 59 58 57 82 87 85 83 83 74 67 60 60 60 53 47 34 27 24 26 26 23 26 24 23 18
12 8 12 14 21 11 13 12 18 5 16 19 20 56 62 58 50 45 46 54 57 51 48 44 45 59 60 69 78 79 80 79 75 75 65 66 61 56 47 35 31 23 29 28 25 25 24 19 15
5 8 26 9 4 12 23 24 15 8 13 11 15 42 52 48 39 36 34 37 58 65 65 50 53 55 64 73 80 84 87 86 80 77 79 73 69 64 49 41 33 25 31 30 22 21 20 13 15
12 10 7 9 6 12 3 9 26 18 24 17 20 33 34 29 32 33 35 41 49 52 65 68 63 52 60 74 88 92 89 84 83 71 84 81 76 60 57 48 36 29 34 27 21 20 19 18 15
15 11 5 11 7 8 12 12 12 20 26 34 30 29 20 30 33 32 30 34 45 52 69 71 68 60 68 77 86 99 91 90 79 72 78 79 67 65 61 51 36 34 32 25 25 27 22 17 14
2 7 3 9 12 15 10 11 18 28 25 20 23 25 25 24 25 15 23 27 38 53 64 76 76 76 68 75 88 96 93 90 83 76 76 67 65 63 56 45 43 35 32 31 34 26 22 16 10
14 7 2 6 7 12 9 9 19 14 17 12 10 14 18 23 26 24 12 21 21 45 53 77 79 72 77 70 72 89 98 90 86 72 71 64 64 66 71 56 43 42 41 41 32 29 21 13 9
3 5 10 5 7 7 9 10 13 15 15 11 11 17 21 32 35 33 28 24 19 31 60 66 79 84 77 72 70 73 87 92 83 77 72 73 72 77 67 55 50 52 45 38 33 27 21 14 14
12 13 9 8 6 10 9 19 16 36 6 7 7 24 32 34 43 43 40 35 29 22 47 73 78 85 84 80 70 74 84 98 82 78 76 70 82 79 63 50 59 50 46 39 33 30 26 19 15
Wind_Direction_500mb
221 152 145 136 67 65 269 260 255 318 -0 327 316 243 224 253 180 218 321 231 205 183 177 180 179 181 184 189 188 187 185 183 182 182 175 170 167 164 165 160 158 160 158 156 153 148 146 141 139
153 150 136 113 97 86 253 282 112 63 309 329 323 292 272 260 262 254 292 224 193 185 180 182 181 182 186 187 187 187 186 186 185 183 177 174 171 169 168 163 162 163 161 159 154 150 149 145 143
146 155 142 102 132 201 204 173 89 298 356 0 341 326 316 299 314 258 273 221 184 186 184 184 182 184 187 187 187 186 184 186 186 184 180 177 175 173 169 166 165 164 161 156 152 150 147 148 148
142 137 77 107 216 258 192 109 290 332 26 18 352 304 328 347 324 309 257 208 183 188 189 187 185 186 188 188 188 187 185 185 186 186 184 180 177 175 171 169 168 167 165 161 157 153 151 157 157
147 116 75 129 260 266 235 285 18 30 30 351 352 306 316 358 341 314 263 199 194 190 191 189 187 188 190 190 189 188 186 184 185 185 184 182 178 175 172 171 170 167 165 158 156 154 153 164 168
90 86 83 229 244 277 302 352 5 35 353 343 351 318 324 344 346 337 232 205 191 193 189 189 188 189 192 192 191 189 186 184 183 184 183 182 179 176 174 175 174 170 169 164 158 153 156 171 179
109 86 207 220 253 302 251 10 23 357 304 332 336 298 321 357 9 330 224 203 196 193 190 188 189 190 193 194 193 191 187 185 183 185 184 182 181 178 178 180 181 180 181 170 162 159 167 176 183
100 89 73 279 279 272 269 334 317 309 279 311 330 309 324 354 344 333 233 209 192 189 193 192 190 192 194 194 194 192 190 189 185 186 186 185 183 182 183 185 185 188 185 174 170 172 175 178 179
85 61 213 258 280 253 297 324 309 294 282 288 291 302 319 339 324 333 223 204 194 190 192 196 195 195 194 194 192 191 191 191 189 186 188 187 185 184 186 189 190 190 186 182 179 181 175 176 172
76 106 228 222 264 293 321 308 294 268 269 281 270 284 315 332 338 342 292 47 211 196 200 202 200 199 197 195 193 192 192 190 191 190 189 188 187 186 187 188 187 189 188 185 184 184 172 170 158
11 191 211 272 306 331 289 309 320 240 287 268 250 282 301 308 317 330 324 259 260 228 208 202 205 207 200 199 195 193 194 194 194 193 192 190 190 190 188 187 187 190 192 190 186 176 173 172 169
292 254 245 299 310 316 262 292 297 263 271 289 283 278 290 304 307 302 302 286 273 255 226 212 205 210 207 203 202 198 195 196 195 195 197 195 194 193 192 188 191 193 192 187 174 170 166 170 169
180 276 302 298 300 293 288 246 246 272 287 290 281 251 280 292 294 284 270 270 285 236 237 217 212 209 211 208 206 203 202 201 200 200 200 202 200 199 195 193 195 196 186 172 166 164 164 164 180
244 273 277 289 279 273 249 260 183 268 291 281 285 285 290 289 288 283 255 257 279 245 209 216 219 214 214 215 210 209 208 206 203 203 205 204 202 202 199 200 197 193 179 168 167 164 168 166 167
289 303 335 273 281 275 282 300 220 288 306 310 318 313 316 309 294 276 260 248 253 248 229 223 222 213 220 219 213 212 211 208 206 206 207 205 201 199 198 198 197 189 184 180 177 179 177 192 220
342 48 350 283 312 303 327 282 286 300 316 315 306 308 315 314 311 276 261 252 239 239 235 230 206 214 223 223 221 214 215 212 208 208 209 205 199 196 193 182 169 173 178 183 193 199 213 228 236
340 277 263 298 180 283 170 288 280 301 301 290 294 301 305 309 312 297 263 255 241 224 227 268 229 225 202 238 229 217 214 212 209 209 209 206 197 189 184 185 182 190 195 189 176 167 206 203 217
279 267 259 271 268 287 287 277 276 280 281 277 280 292 292 299 300 319 269 248 242 230 220 268 213 214 207 224 228 220 213 211 209 210 207 204 197 192 194 196 199 197 198 205 191 209 219 218 217
265 256 261 272 272 271 274 281 279 281 259 267 274 283 278 282 286 290 288 240 226 230 200 227 210 207 204 225 221 218 213 209 207 207 204 202 195 194 201 199 198 203 218 226 220 218 210 212 219
264 261 264 270 269 221 271 275 278 281 257 255 263 261 270 274 270 270 276 231 218 231 219 204 220 220 228 227 219 216 209 210 209 205 202 197 195 194 201 202 199 213 222 215 210 222 221 217 227
277 259 271 264 285 250 279 277 285 284 262 260 252 258 262 261 257 259 251 242 235 235 233 224 218 216 225 220 211 211 208 210 206 206 199 193 193 197 204 201 204 226 222 225 222 230 233 240 245
286 298 309 289 329 278 131 288 287 266 262 245 248 248 252 259 262 259 249 238 239 235 242 233 234 222 219 216 208 206 209 206 203 201 195 193 194 198 207 205 206 223 219 222 233 236 240 261 267
260 307 275 270 272 285 223 259 274 165 272 257 234 246 258 265 264 261 256 242 229 223 242 229 234 230 216 219 210 205 207 209 202 200 194 194 191 197 203 202 195 209 218 220 226 239 252 251 259
357 336 317 313 213 250 214 204 271 226 228 252 239 244 263 270 273 270 262 241 226 212 222 237 229 232 226 223 210 208 207 206 204 200 197 193 191 184 191 196 197 205 219 220 230 243 238 209 187
57 358 300 332 209 237 295 281 256 281 270 252 259 270 281 293 288 274 257 239 234 224 220 227 236 221 224 229 215 214 214 207 203 203 199 193 189 182 188 191 191 203 215 217 222 208 180 172 186
285 184 220 253 244 267 324 252 260 251 268 287 285 278 296 329 305 268 248 225 222 217 215 223 238 214 208 228 223 214 212 208 214 219 210 198 193 184 185 185 192 200 202 196 186 175 176 178 196
181 200 210 265 234 267 228 297 290 260 272 278 272 277 298 343 8 338 243 238 234 226 219 221 224 234 213 221 219 219 216 218 221 217 215 208 198 192 186 186 195 188 185 180 173 175 178 178 175
162 167 255 207 270 262 261 242 236 279 285 298 337 343 323 343 7 24 336 275 263 234 218 218 219 228 231 218 219 218 222 216 216 215 214 215 208 204 186 184 184 179 173 169 173 169 160 166 160
129 248 224 251 226 269 288 242 223 240 258 286 298 325 341 345 344 343 339 338 261 248 227 220 220 223 234 222 216 216 217 211 211 216 221 220 209 197 179 174 176 169 166 165 166 160 151 159 135
230 242 206 232 244 241 256 251 265 271 259 174 264 304 319 319 326 326 323 321 325 271 226 220 221 220 225 227 213 211 210 212 214 218 218 216 193 178 176 173 166 165 169 165 163 156 145 143 132
Wind_Speed_850mb
2 8 12 10 7 10 6 11 2 7 11 7 30 13 12 18 11 12 15 16 36 65 76 76 74 70 65 58 50 44 49 53 52 49 47 46 45 45 50 49 47 44 37 34 31 27 24 25 26
5 15 13 7 9 4 10 4 5 4 24 35 21 13 7 14 35 57 38 17 33 67 76 78 77 72 66 59 52 47 47 50 52 52 52 49 46 45 49 47 44 40 36 34 30 26 23 23 23
10 17 8 8 7 12 8 5 7 13 21 31 20 16 11 23 29 22 32 27 43 68 74 76 76 74 69 61 53 47 48 51 52 55 54 52 48 47 49 47 43 37 34 33 29 25 21 20 20
10 9 8 8 14 11 8 6 7 12 20 27 33 13 24 28 42 30 31 41 45 63 70 73 73 70 67 63 55 48 48 51 54 55 54 53 50 49 50 46 41 37 34 30 27 24 20 17 19
10 6 7 3 10 8 6 5 2 8 7 12 28 20 29 31 50 26 25 44 46 63 72 74 73 70 65 60 55 49 48 49 52 55 54 53 52 51 50 45 39 36 32 27 23 22 21 18 18
6 6 6 7 8 8 11 7 8 7 11 17 24 38 12 58 42 29 17 37 50 67 77 76 74 70 65 60 54 50 49 48 51 54 54 51 51 51 51 45 41 36 28 23 20 21 22 20 18
11 8 7 5 5 8 6 15 6 9 12 8 24 13 18 57 26 17 19 37 47 67 77 76 73 68 64 60 55 49 48 49 51 53 52 50 50 51 50 46 40 34 27 23 20 20 21 19 18
8 8 4 4 2 8 7 26 34 18 11 26 19 7 14 35 33 13 18 26 36 65 70 74 75 71 65 60 55 49 46 47 50 50 49 49 50 50 48 44 39 33 28 24 21 21 20 19 17
6 8 0 6 4 10 21 10 30 26 28 15 21 21 20 22 25 23 7 16 30 45 53 61 70 71 69 63 56 52 48 46 45 46 48 49 50 48 46 41 37 32 27 24 22 21 20 19 15
9 7 11 8 6 10 22 20 39 12 25 19 28 23 13 17 22 24 19 4 21 41 48 51 58 69 70 68 63 56 54 52 49 48 48 47 46 44 41 38 34 30 26 23 21 20 21 21 16
2 6 6 11 12 13 14 24 22 10 11 28 23 18 19 26 26 22 14 26 13 44 53 51 55 61 71 71 71 66 59 53 49 47 47 47 45 42 39 37 33 27 22 19 18 19 24 24 14
2 17 10 16 40 29 8 20 19 18 26 28 29 28 16 31 29 24 19 14 24 34 57 60 58 62 66 73 73 69 65 61 56 51 49 49 47 42 38 33 28 22 20 18 18 21 24 21 14
5 4 23 38 51 48 41 24 22 31 46 41 33 24 28 39 41 27 23 24 16 35 47 72 69 68 64 74 75 71 69 66 57 53 49 48 45 41 37 31 26 22 19 19 21 22 22 16 12
9 22 29 31 50 37 16 21 11 38 26 30 40 44 44 43 37 34 28 24 13 24 49 60 67 65 66 73 75 74 71 66 60 54 51 49 46 39 33 29 25 22 20 22 21 20 18 13 11
17 13 13 7 5 12 8 13 11 32 37 27 45 39 35 39 39 36 30 26 23 20 37 54 62 69 74 73 76 75 72 68 63 56 53 49 46 40 33 27 24 23 20 19 17 15 12 12 9
12 5 10 11 10 10 1 18 16 62 34 60 51 39 47 43 35 28 26 26 31 32 23 40 46 57 74 72 76 76 74 69 62 56 52 48 46 40 36 30 25 18 15 14 13 14 12 14 17
7 16 11 17 11 9 3 24 22 50 67 49 54 58 44 40 32 28 28 28 33 30 26 22 67 48 59 81 78 79 76 69 63 58 52 48 46 41 38 36 27 22 17 13 13 15 11 12 13
24 16 18 23 9 16 29 33 39 29 43 49 50 58 47 32 35 34 24 26 28 32 22 19 68 67 78 75 84 83 79 72 63 58 51 48 49 45 38 37 32 21 19 15 15 17 18 17 16
20 17 30 29 25 11 32 33 50 26 33 39 46 55 51 46 44 34 22 26 27 32 41 29 67 71 86 90 93 91 84 74 66 59 51 50 51 47 41 36 32 23 19 18 21 19 18 19 18
23 26 34 31 25 14 24 35 52 31 27 45 51 53 56 53 38 36 26 29 33 33 39 58 58 78 85 92 95 93 82 75 66 58 54 51 54 49 40 35 27 22 22 22 22 18 19 22 19
28 19 30 27 8 12 13 43 46 33 39 49 58 65 59 54 45 44 43 37 37 34 38 57 63 61 67 93 96 86 76 77 70 65 59 59 57 49 42 31 23 25 21 21 19 21 22 22 16
19 9 13 11 7 13 8 29 41 19 34 27 34 52 65 67 59 51 53 53 45 38 44 44 59 58 57 82 87 85 83 83 74 67 60 60 60 53 47 34 27 24 26 26 23 26 24 23 18
12 8 12 14 21 11 13 12 18 5 16 19 20 56 62 58 50 45 46 54 57 51 48 44 45 59 60 69 78 79 80 79 75 75 65 66 61 56 47 35 31 23 29 28 25 25 24 19 15
5 8 26 9 4 12 23 24 15 8 13 11 15 42 52 48 39 36 34 37 58 65 65 50 53 55 64 73 80 84 87 86 80 77 79 73 69 64 49 41 33 25 31 30 22 21 20 13 15
12 10 7 9 6 12 3 9 26 18 24 17 20 33 34 29 32 33 35 41 49 52 65 68 63 52 60 74 88 92 89 84 83 71 84 81 76 60 57 48 36 29 34 27 21 20 19 18 15
15 11 5 11 7 8 12 12 12 20 26 34 30 29 20 30 33 32 30 34 45 52 69 71 68 60 68 77 86 99 91 90 79 72 78 79 67 65 61 51 36 34 32 25 25 27 22 17 14
2 7 3 9 12 15 10 11 18 28 25 20 23 25 25 24 25 15 23 27 38 53 64 76 76 76 68 75 88 96 93 90 83 76 76 67 65 63 56 45 43 35 32 31 34 26 22 16 10
14 7 2 6 7 12 9 9 19 14 17 12 10 14 18 23 26 24 12 21 21 45 53 77 79 72 77 70 72 89 98 90 86 72 71 64 64 66 71 56 43 42 41 41 32 29 21 13 9
3 5 10 5 7 7 9 10 13 15 15 11 11 17 21 32 35 33 28 24 19 31 60 66 79 84 77 72 70 73 87 92 83 77 72 73 72 77 67 55 50 52 45 38 33 27 21 14 14
12 13 9 8 6 10 9 19 16 36 6 7 7 24 32 34 43 43 40 35 29 22 47 73 78 85 84 80 70 74 84 98 82 78 76 70 82 79 63 50 59 50 46 39 33 30 26 19 15
Wind_Direction_850mb
221 152 145 136 67 65 269 260 255 318 -0 327 316 243 224 253 180 218 321 231 205 183 177 180 179 181 184 189 188 187 185 183 182 182 175 170 167 164 165 160 158 160 158 156 153 148 146 141 139
153 150 136 113 97 86 253 282 112 63 309 329 323 292 272 260 262 254 292 224 193 185 180 182 181 182 186 187 187 187 186 186 185 183 177 174 171 169 168 163 162 163 161 159 154 150 149 145 143
146 155 142 102 132 201 204 173 89 298 356 0 341 326 316 299 314 258 273 221 184 186 184 184 182 184 187 187 187 186 184 186 186 184 180 177 175 173 169 166 165 164 161 156 152 150 147 148 148
142 137 77 107 216 258 192 109 290 332 26 18 352 304 328 347 324 309 257 208 183 188 189 187 185 186 188 188 188 187 185 185 186 186 184 180 177 175 171 169 168 167 165 161 157 153 151 157 157
147 116 75 129 260 266 235 285 18 30 30 351 352 306 316 358 341 314 263 199 194 190 191 189 187 188 190 190 189 188 186 184 185 185 184 182 178 175 172 171 170 167 165 158 156 154 153 164 168
90 86 83 229 244 277 302 352 5 35 353 343 351 318 324 344 346 337 232 205 191 193 189 189 188 189 192 192 191 189 186 184 183 184 183 182 179 176 174 175 174 170 169 164 158 153 156 171 179
109 86 207 220 253 302 251 10 23 357 304 332 336 298 321 357 9 330 224 203 196 193 190 188 189 190 193 194 193 191 187 185 183 185 184 182 181 178 178 180 181 180 181 170 162 159 167 176 183
100 89 73 279 279 272 269 334 317 309 279 311 330 309 324 354 344 333 233 209 192 189 193 192 190 192 194 194 194 192 190 189 185 186 186 185 183 182 183 185 185 188 185 174 170 172 175 178 179
85 61 213 258 280 253 297 324 309 294 282 288 291 302 319 339 324 333 223 204 194 190 192 196 195 195 194 194 192 191 191 191 189 186 188 187 185 184 186 189 190 190 186 182 179 181 175 176 172
76 106 228 222 264 293 321 308 294 268 269 281 270 284 315 332 338 342 292 47 211 196 200 202 200 199 197 195 193 192 192 190 191 190 189 188 187 186 187 188 187 189 188 185 184 184 172 170 158
11 191 211 272 306 331 289 309 320 240 287 268 250 282 301 308 317 330 324 259 260 228 208 202 205 207 200 199 195 193 194 194 194 193 192 190 190 190 188 187 187 190 192 190 186 176 173 172 169
292 254 245 299 310 316 262 292 297 263 271 289 283 278 290 304 307 302 302 286 273 255 226 212 205 210 207 203 202 198 195 196 195 195 197 195 194 193 192 188 191 193 192 187 174 170 166 170 169
180 276 302 298 300 293 288 246 246 272 287 290 281 251 280 292 294 284 270 270 285 236 237 217 212 209 211 208 206 203 202 201 200 200 200 202 200 199 195 193 195 196 186 172 166 164 164 164 180
244 273 277 289 279 273 249 260 183 268 291 281 285 285 290 289 288 283 255 257 279 245 209 216 219 214 214 215 210 209 208 206 203 203 205 204 202 202 199 200 197 193 179 168 167 164 168 166 167
289 303 335 273 281 275 282 300 220 288 306 310 318 313 316 309 294 276 260 248 253 248 229 223 222 213 220 219 213 212 211 208 206 206 207 205 201 199 198 198 197 189 184 180 177 179 177 192 220
342 48 350 283 312 303 327 282 286 300 316 315 306 308 315 314 311 276 261 252 239 239 235 230 206 214 223 223 221 214 215 212 208 208 209 205 199 196 193 182 169 173 178 183 193 199 213 228 236
340 277 263 298 180 283 170 288 280 301 301 290 294 301 305 309 312 297 263 255 241 224 227 268 229 225 202 238 229 217 214 212 209 209 209 206 197 189 184 185 182 190 195 189 176 167 206 203 217
279 267 259 271 268 287 287 277 276 280 281 277 280 292 292 299 300 319 269 248 242 230 220 268 213 214 207 224 228 220 213 211 209 210 207 204 197 192 194 196 199 197 198 205 191 209 219 218 217
265 256 261 272 272 271 274 281 279 281 259 267 274 283 278 282 286 290 288 240 226 230 200 227 210 207 204 225 221 218 213 209 207 207 204 202 195 194 201 199 198 203 218 226 220 218 210 212 219
264 261 264 270 269 221 271 275 278 281 257 255 263 261 270 274 270 270 276 231 218 231 219 204 220 220 228 227 219 216 209 210 209 205 202 197 195 194 201 202 199 213 222 215 210 222 221 217 227
277 259 271 264 285 250 279 277 285 284 262 260 252 258 262 261 257 259 251 242 235 235 233 224 218 216 225 220 211 211 208 210 206 206 199 193 193 197 204 201 204 226 222 225 222 230 233 240 245
286 298 309 289 329 278 131 288 287 266 262 245 248 248 252 259 262 259 249 238 239 235 242 233 234 222 219 216 208 206 209 206 203 201 195 193 194 198 207 205 206 223 219 222 233 236 240 261 267
260 307 275 270 272 285 223 259 274 165 272 257 234 246 258 265 264 261 256 242 229 223 242 229 234 230 216 219 210 205 207 209 202 200 194 194 191 197 203 202 195 209 218 220 226 239 252 251 259
357 336 317 313 213 250 214 204 271 226 228 252 239 244 263 270 273 270 262 241 226 212 222 237 229 232 226 223 210 208 207 206 204 200 197 193 191 184 191 196 197 205 219 220 230 243 238 209 187
57 358 300 332 209 237 295 281 256 281 270 252 259 270 281 293 288 274 257 239 234 224 220 227 236 221 224 229 215 214 214 207 203 203 199 193 189 182 188 191 191 203 215 217 222 208 180 172 186
285 184 220 253 244 267 324 252 260 251 268 287 285 278 296 329 305 268 248 225 222 217 215 223 238 214 208 228 223 214 212 208 214 219 210 198 193 184 185 185 192 200 202 196 186 175 176 178 196
181 200 210 265 234 267 228 297 290 260 272 278 272 277 298 343 8 338 243 238 234 226 219 221 224 234 213 221 219 219 216 218 221 217 215 208 198 192 186 186 195 188 185 180 173 175 178 178 175
162 167 255 207 270 262 261 242 236 279 285 298 337 343 323 343 7 24 336 275 263 234 218 218 219 228 231 218 219 218 222 216 216 215 214 215 208 204 186 184 184 179 173 169 173 169 160 166 160
129 248 224 251 226 269 288 242 223 240 258 286 298 325 341 345 344 343 339 338 261 248 227 220 220 223 234 222 216 216 217 211 211 216 221 220 209 197 179 174 176 169 166 165 166 160 151 159 135
230 242 206 232 244 241 256 251 265 271 259 174 264 304 319 319 326 326 323 321 325 271 226 220 221 220 225 227 213 211 210 212 214 218 218 216 193 178 176 173 166 165 169 165 163 156 145 143 132